TimeEST,TemperatureF,Dew PointF,Humidity,Sea Level PressureIn,VisibilityMPH,Wind Direction,Wind SpeedMPH,Gust SpeedMPH,PrecipitationIn,Events,Conditions,WindDirDegrees,DateUTC
12:15 AM,22.1,15.8,77,30.41,10.0,West,3.5,-,N/A,,Clear,260,2013-01-18 05:15:00
12:35 AM,21.6,15.8,78,30.42,10.0,WSW,3.5,-,N/A,,Clear,250,2013-01-18 05:35:00
12:55 AM,21.2,15.8,80,30.42,10.0,WSW,3.5,-,N/A,,Clear,240,2013-01-18 05:55:00
1:15 AM,21.2,16.2,81,30.43,10.0,WSW,4.6,-,N/A,,Clear,240,2013-01-18 06:15:00
1:35 AM,21.2,15.8,80,30.43,10.0,WSW,4.6,-,N/A,,Clear,240,2013-01-18 06:35:00
1:55 AM,20.7,15.6,81,30.43,10.0,SW,3.5,-,N/A,,Clear,230,2013-01-18 06:55:00
2:15 AM,20.3,14.9,80,30.44,10.0,West,3.5,-,N/A,,Clear,270,2013-01-18 07:15:00
2:35 AM,20.8,14.9,78,30.44,10.0,WSW,3.5,-,N/A,,Clear,240,2013-01-18 07:35:00
2:55 AM,20.3,15.3,81,30.46,10.0,WSW,4.6,-,N/A,,Clear,250,2013-01-18 07:55:00
3:15 AM,20.3,14.9,80,30.46,10.0,Calm,Calm,-,N/A,,Clear,0,2013-01-18 08:15:00
3:35 AM,20.1,15.6,83,30.46,10.0,WSW,3.5,-,N/A,,Clear,240,2013-01-18 08:35:00
3:55 AM,20.1,15.8,83,30.46,10.0,SSW,3.5,-,N/A,,Clear,200,2013-01-18 08:55:00
4:15 AM,19.9,15.8,84,30.45,10.0,South,3.5,-,N/A,,Clear,170,2013-01-18 09:15:00
4:35 AM,19.4,15.3,84,30.45,10.0,SSW,3.5,-,N/A,,Clear,200,2013-01-18 09:35:00
4:55 AM,19.9,15.8,84,30.44,10.0,South,3.5,-,N/A,,Clear,190,2013-01-18 09:55:00
5:15 AM,19.9,15.8,84,30.45,10.0,SW,4.6,-,N/A,,Clear,230,2013-01-18 10:15:00
5:35 AM,19.9,15.6,83,30.45,10.0,SW,3.5,-,N/A,,Clear,220,2013-01-18 10:35:00
5:55 AM,19.9,15.4,83,30.46,10.0,Calm,Calm,-,N/A,,Clear,0,2013-01-18 10:55:00
6:15 AM,20.1,15.4,82,30.45,10.0,SSW,3.5,-,N/A,,Clear,210,2013-01-18 11:15:00
6:35 AM,20.3,15.3,81,30.45,10.0,SSW,3.5,-,N/A,,Clear,210,2013-01-18 11:35:00
6:55 AM,19.9,14.9,81,30.46,10.0,SSW,5.8,-,N/A,,Clear,210,2013-01-18 11:55:00
7:15 AM,20.5,14.9,79,30.45,10.0,SSW,4.6,-,N/A,,Clear,210,2013-01-18 12:15:00
7:35 AM,20.5,14.7,78,30.45,10.0,South,3.5,-,N/A,,Clear,190,2013-01-18 12:35:00
7:55 AM,20.1,14.7,80,30.45,10.0,SSW,3.5,-,N/A,,Clear,200,2013-01-18 12:55:00
8:15 AM,20.3,14.7,79,30.46,10.0,SSW,4.6,-,N/A,,Clear,210,2013-01-18 13:15:00
8:35 AM,21.2,14.9,77,30.46,10.0,South,4.6,-,N/A,,Clear,190,2013-01-18 13:35:00
9:15 AM,23.9,16.5,73,30.46,10.0,South,6.9,-,N/A,,Clear,190,2013-01-18 14:15:00
9:35 AM,25.5,16.0,67,30.47,10.0,SSW,6.9,-,N/A,,Clear,200,2013-01-18 14:35:00
9:55 AM,27.0,15.8,63,30.47,10.0,SSW,8.1,-,N/A,,Clear,200,2013-01-18 14:55:00
10:15 AM,28.4,15.6,59,30.47,10.0,SSW,10.4,-,N/A,,Clear,200,2013-01-18 15:15:00
10:35 AM,29.7,16.2,57,30.47,10.0,SSW,11.5,-,N/A,,Clear,200,2013-01-18 15:35:00
10:55 AM,30.7,17.1,57,30.47,10.0,SSW,10.4,-,N/A,,Clear,210,2013-01-18 15:55:00
11:15 AM,31.8,18.3,57,30.46,10.0,SSW,12.7,-,N/A,,Clear,210,2013-01-18 16:15:00
11:35 AM,32.0,18.9,58,30.45,10.0,SSW,12.7,-,N/A,,Clear,200,2013-01-18 16:35:00
11:55 AM,32.2,18.0,56,30.43,10.0,SSW,12.7,-,N/A,,Clear,210,2013-01-18 16:55:00
12:15 PM,32.9,18.5,55,30.41,10.0,SSW,15.0,-,N/A,,Clear,200,2013-01-18 17:15:00
12:55 PM,34.7,17.8,50,30.38,10.0,South,16.1,23.0,N/A,,Clear,190,2013-01-18 17:55:00
1:15 PM,35.1,17.2,48,30.37,10.0,South,13.8,-,N/A,,Clear,190,2013-01-18 18:15:00
1:35 PM,35.8,17.1,47,30.34,10.0,South,13.8,-,N/A,,Clear,190,2013-01-18 18:35:00
1:55 PM,36.5,16.7,45,30.33,10.0,South,16.1,-,N/A,,Clear,190,2013-01-18 18:55:00
2:15 PM,37.2,16.7,43,30.32,10.0,South,18.4,23.0,N/A,,Clear,190,2013-01-18 19:15:00
2:35 PM,37.8,16.9,43,30.30,10.0,South,19.6,-,N/A,,Clear,190,2013-01-18 19:35:00
3:15 PM,38.3,16.0,40,30.29,10.0,South,17.3,23.0,N/A,,Clear,190,2013-01-18 20:15:00
3:35 PM,38.7,17.2,42,30.28,10.0,South,12.7,-,N/A,,Clear,190,2013-01-18 20:35:00
3:55 PM,38.3,16.3,41,30.26,10.0,South,16.1,21.9,N/A,,Clear,190,2013-01-18 20:55:00
4:15 PM,39.0,17.1,41,30.25,10.0,South,17.3,24.2,N/A,,Clear,190,2013-01-18 21:15:00
4:35 PM,39.2,18.3,43,30.25,10.0,South,16.1,20.7,N/A,,Clear,190,2013-01-18 21:35:00
4:55 PM,39.2,17.2,41,30.23,10.0,South,16.1,-,N/A,,Clear,190,2013-01-18 21:55:00
5:15 PM,38.7,17.4,42,30.22,10.0,South,18.4,21.9,N/A,,Clear,180,2013-01-18 22:15:00
5:35 PM,38.3,17.4,43,30.21,10.0,South,13.8,25.3,N/A,,Clear,190,2013-01-18 22:35:00
5:55 PM,37.8,17.4,44,30.21,10.0,South,16.1,24.2,N/A,,Clear,190,2013-01-18 22:55:00
6:15 PM,37.6,17.8,45,30.21,10.0,South,16.1,21.9,N/A,,Clear,180,2013-01-18 23:15:00
6:35 PM,37.4,18.5,46,30.21,10.0,South,17.3,21.9,N/A,,Clear,190,2013-01-18 23:35:00
6:55 PM,37.4,19.0,48,30.21,10.0,South,17.3,25.3,N/A,,Clear,190,2013-01-18 23:55:00
7:15 PM,37.2,19.2,48,30.21,10.0,South,18.4,26.5,N/A,,Clear,190,2013-01-19 00:15:00
7:35 PM,36.9,19.6,50,30.20,10.0,South,20.7,25.3,N/A,,Clear,190,2013-01-19 00:35:00
7:55 PM,36.9,20.1,51,30.20,10.0,SSW,18.4,25.3,N/A,,Clear,200,2013-01-19 00:55:00
8:15 PM,37.2,20.3,50,30.18,10.0,South,18.4,25.3,N/A,,Clear,190,2013-01-19 01:15:00
8:35 PM,37.4,20.7,51,30.17,10.0,South,18.4,25.3,N/A,,Clear,190,2013-01-19 01:35:00
8:55 PM,37.8,21.0,51,30.16,10.0,SSW,20.7,27.6,N/A,,Clear,200,2013-01-19 01:55:00
9:15 PM,37.8,21.4,52,30.15,10.0,SSW,21.9,26.5,N/A,,Clear,200,2013-01-19 02:15:00
9:35 PM,38.3,21.7,51,30.14,10.0,SSW,24.2,29.9,N/A,,Clear,200,2013-01-19 02:35:00
9:55 PM,38.5,21.9,51,30.14,10.0,SSW,20.7,33.4,N/A,,Clear,200,2013-01-19 02:55:00
10:15 PM,38.3,22.1,52,30.13,10.0,SSW,23.0,28.8,N/A,,Clear,200,2013-01-19 03:15:00
10:35 PM,38.8,21.7,50,30.12,10.0,SSW,23.0,32.2,N/A,,Clear,200,2013-01-19 03:35:00
10:55 PM,38.8,21.7,50,30.12,10.0,SSW,21.9,28.8,N/A,,Clear,200,2013-01-19 03:55:00
11:15 PM,38.8,21.6,50,30.11,10.0,SSW,19.6,27.6,N/A,,Clear,210,2013-01-19 04:15:00
11:35 PM,38.8,21.4,50,30.11,10.0,SSW,21.9,-,N/A,,Clear,210,2013-01-19 04:35:00
11:55 PM,39.2,21.4,49,30.11,10.0,SSW,19.6,27.6,N/A,,Clear,210,2013-01-19 04:55:00